Powrót do katalogu

NOAA 1 DEB *

AktywnySSO
NORAD 8828·DEBRIS·🇺🇸 United States

Wystrzelony Dec 11, 1970 z Vandenberg Space Force Base

Loading…

Następne Przeloty (najbliższe 24 godziny)

TLE

ŚwieżeSource: Space-Track

Epoka: Sep 14, 2026, 10:31 UTC

1 08828U 70106C   26257.43853549  .00000060  00000-0  79863-3 0  9995
2 08828 102.2537 236.3382 0031585 327.1779 186.6259 12.39741570522390

Śledź NOAA 1 DEB * w czasie rzeczywistym z AllMySat

Download on the App Store